Regional Weather Roundup
Issued by NWS

Home | Current Version | Previous Version | Graphics & Text | Print | Product List | Glossary On
Versions: 1 2 3 4 5 6 7 8 9 10 11 12 13 14 15 16 17 18 19 20 21 22 23 24 25 26 27 28 29 30 31 32 33 34 35 36 37 38 39 40 41 42 43 44 45 46 47 48 49 50
999
ASUS45 KBOU 241107
RWRCO

WEATHER ROUNDUP FOR COLORADO
NATIONAL WEATHER SERVICE DENVER/BOULDER CO
500 AM MDT MON JUL 24 2017

NOTE: "FAIR" INDICATES FEW OR NO CLOUDS BELOW 12000 FEET WITH NO
SIGNIFICANT WEATHER AND/OR OBSTRUCTIONS TO VISIBILITY.

COZ001>005-013-030-031-241200-
...NORTHWEST COLORADO...

CITY           SKY/WX    TMP DP  RH WIND       PRES   REMARKS
CRAIG          FAIR      50  44  80 CALM      30.19R
HAYDEN         FAIR      57  37  47 E10       30.22R
MEEKER         FAIR      53  45  74 E6        30.21R
RABBIT EARS PA FAIR      54  36  50 W8G16     30.51S
STEAMBOAT SPGS FAIR      51  41  69 E3        30.24S
WALDEN         FAIR      48  39  71 SE7       30.34S
$$

COZ006>008-011-241200-
...WEST CENTRAL VALLEYS...

CITY           SKY/WX    TMP DP  RH WIND       PRES   REMARKS
GRAND JUNCTION FAIR      72  49  44 E13       30.08R
MONTROSE       FAIR      61  49  64 S7        30.19S
EAGLE          FAIR      56  46  69 CALM      30.28R
RIFLE          FAIR      62  44  51 CALM      30.15S
DELTA          FAIR      63  47  57 NE6       30.16R
NUCLA          FAIR      63  45  51 E13       30.24R
$$

COZ017>023-064>068-241200-
...SOUTHWEST COLORADO...

CITY           SKY/WX    TMP DP  RH WIND       PRES   REMARKS
DURANGO        CLOUDY    61  52  72 N5        30.29S
CORTEZ         CLOUDY    65  57  75 CALM      30.22R
PAGOSA SPRINGS CLOUDY    63  47  56 NE7       30.36S
TELLURIDE      FAIR      59  46  61 CALM      30.45S
WOLF CREEK PAS NOT AVBL
$$

COZ009-010-012-014-032>034-037-058>063-241200-
...CENTRAL COLORADO...

CITY           SKY/WX    TMP DP  RH WIND       PRES   REMARKS
ASPEN          FAIR      52  42  69 SW3       30.31S
BUENA VISTA    FAIR      51  45  80 W3        30.37S
COPPER MTN     FAIR      54  32  43 W8        30.64S
BERTHOUD PASS  FAIR      45  32  61 NW17      30.66S
COTTONWOOD PAS FAIR      57  39  51 SE5       30.49R
GUNNISON       FAIR      52  46  80 N6        30.37R
KREMMLING      FAIR      54  45  71 CALM      30.32S
LEADVILLE      FAIR      41  37  86 NE5       30.47S
MONARCH PASS   FAIR      46  37  71 SW20      30.74R
SALIDA         FAIR      56  49  79 W3        30.42R
SUNLIGHT       FAIR      50  36  57 SW8       30.56S
WILKERSON PASS FAIR      46  43  87 SW12      30.60R
$$

COZ069>075-241200-
...SAN LUIS VALLEY/SANGRE DE CRISTO MOUNTAINS...

CITY           SKY/WX    TMP DP  RH WIND       PRES   REMARKS
ALAMOSA        FAIR      52  49  89 SE6       30.33S
DEL NORTE      FAIR      54  45  70 W6        30.36F
LA VETA PASS   NOT AVBL
SAGUACHE         N/A    N/A N/A N/A MISG        N/A
$$

COZ035-036-038>040-241200-
...NORTHERN COLORADO FRONT RANGE...

CITY           SKY/WX    TMP DP  RH WIND       PRES   REMARKS
DENVER INTL AP FAIR      67  53  61 S14       30.08S
DMNS CITY PARK   N/A     70  51  51 SE10      30.07S
AURORA         PTCLDY    69  54  59 S23G29    30.10S
FRONT RANGE AP FAIR      68  55  64 S13G18    30.11S
ERIE MUNI ARPT FAIR      61  51  69 CALM      30.07R
BOULDER MUN AP FAIR      63  43  48 CALM      30.07R
CENTENNIAL     FAIR      68  53  58 S13       30.12S
BROOMFIELD     FAIR      68  46  45 CALM      30.09S
FORT COLLINS   FAIR      62  52  69 N7        30.07R
LONGMONT       FAIR      60  48  64 NW3       30.08R
$$

COZ041-046-047-076>085-087-088-241200-
...PIKES PEAK/PALMER DIVIDE AND SOUTHERN FOOTHILLS...

CITY           SKY/WX    TMP DP  RH WIND       PRES   REMARKS
COLO. SPRINGS  FAIR      64  57  78 E5        30.23R
A. F. ACADEMY  FAIR      58  53  83 CALM      30.24R
SCHRIEVER AFB  FAIR      60  54  81 E10       30.22S
CHEYENNE MTN   FAIR      66  50  56 S7        30.21S
ELLICOTT       FAIR     N/A N/A N/A S8        30.20F
FALCON           N/A     59  55  89 S6        30.28R
FORT CARSON    FAIR      59  55  88 N6        30.19S
LIMON          FAIR      62  60  93 SE7       30.16S
MONUMENT HILL  FAIR      59  52  77 S15G21    30.26R
CANON CITY     CLEAR     63  55  77 W8        30.16S
WALSENBURG     NOT AVBL
TRINIDAD       FAIR      62  50  64 SW13      30.20R
$$

COZ042>045-048>051-090-091-241200-
...NORTHEAST COLORADO...

CITY           SKY/WX    TMP DP  RH WIND       PRES   REMARKS
GREELEY ARPT   FAIR      65  57  75 E7        30.05S
AKRON          FAIR      69  60  73 S14G22    30.09R
BURLINGTON     FAIR      65  61  87 S9        30.10S
WRAY           NOT AVBL
YUMA           FAIR      64  54  68 SW9       30.06S
STERLING       FAIR      64  59  82 S6        30.03S
HOLYOKE        FAIR      63  59  88 SW5       30.05R
FORT MORGAN    FAIR      66  58  76 S7        30.06S
$$

COZ086-089-092>099-241200-
...SOUTHEAST COLORADO...

CITY           SKY/WX    TMP DP  RH WIND       PRES   REMARKS
PUEBLO         FAIR      61  54  77 N6        30.11S
LA JUNTA       FAIR      68  60  75 CALM      30.10S
LAMAR          FAIR      70  62  76 SE3       30.07R
SPRINGFIELD      N/A     62  60  93 SW7       30.12S
$$




USA.gov is the U.S. government's official web portal to all federal, state and local government web resources and services.